User: anonymous   Login
Location: ??????????
(54.4061°N, 22.6114°E)
Time: 03:39:35
(UTC+00:00)
Language:

SKYMED 2 - Orbit

View from above orbital plane
View from above orbital plane
View from above satellite
View from above satellite

Ground track
Ground track

The orbit data is extracted from the following two-line orbital elements,

1 32376U 07059A   19348.79018586 -.00000332  00000-0 -35108-4 0  9992
2 32376  97.8826 169.6431 0001256  96.7505 263.3863 14.82156661650078
Epoch (UTC): 14 December 2019 18:57:52
Eccentricity: 0.0001256
inclination: 97.8826°
perigee height: 621 km
apogee height: 623 km
right ascension of ascending node: 169.6431°
argument of perigee: 96.7505°
revolutions per day: 14.82156661
mean anomaly at epoch: 263.3863°
orbit number at epoch: 65007

The dashed part of the orbit path shows where the satellite is in the earth's shadow,  

DLR